[[{"header":{"parameterUnit":"m.s-1","parameterCategory":1,"la1":30.2991,"la2":30.254,"lo1":-89.0895,"lo2":-89.0444,"dy":0.0017,"dx":0.0017,"nx":28,"ny":28,"refTime":"2026-01-10T03:00:00:Z","depth":0,"parameterNumber":2,"parameterNumberName":"U-component_of_WINDS"},"data":[0,0,0,0,0,0,0,0,0,0,0,0,0,0,0,0,0,0,0,0,0,0,0,0,0,0,0,0,0,0,0,0,0,0,0,0,0,0,0,0,0,0,0,0,0,0,0,0,0,0,0,0,0,0,0,0,0,0,-0.759,-0.7591,0,-0.7682,-0.7684,-0.7685,-0.7733,-0.7734,-0.7734,-0.7734,-0.7834,-0.7837,-0.7839,0,0,0,0,0,0,0,0,0,0,0,0,0,-0.746,-0.7462,-0.759,-0.7591,-0.7592,-0.7682,-0.7684,-0.7685,-0.7733,-0.7734,-0.7734,-0.7734,-0.7833,-0.7836,-0.784,0,0,0,0,0,0,0,0,0,0,0,0,0,-0.7531,-0.7462,-0.7589,-0.7627,-0.7631,-0.7682,-0.7684,-0.7685,-0.7733,-0.7734,-0.7734,-0.7734,-0.7832,-0.7836,-0.784,-0.7862,0,0,-0.7852,-0.7854,0,0,0,0,0,0,0,0,-0.7527,-0.7535,-0.762,-0.7624,-0.7629,-0.7696,-0.7675,-0.7745,-0.7733,-0.7695,-0.7734,-0.7734,-0.7789,-0.7796,-0.7813,-0.7867,-0.7871,-0.7852,-0.7855,-0.7856,-0.7857,0,0,0,0,0,0,0,-0.7522,-0.7532,-0.7627,-0.7622,-0.7627,-0.7641,-0.7651,-0.7688,-0.774,-0.7698,-0.7702,-0.7712,-0.7791,-0.781,-0.7816,-0.7873,-0.7852,-0.7856,-0.7858,-0.786,-0.7949,-0.7949,0,0,0,0,0,0,-0.751,-0.7527,-0.7624,-0.7629,-0.7577,-0.7643,-0.7654,-0.7675,-0.774,-0.775,-0.7712,-0.7714,-0.7803,-0.7812,-0.782,-0.785,-0.7856,-0.786,-0.7862,-0.7949,-0.7949,-0.7949,0,0,0,0,0,0,-0.7507,-0.7518,-0.762,-0.7579,-0.7593,-0.7645,-0.7668,-0.7677,-0.7695,-0.775,-0.776,-0.7721,-0.7803,-0.7814,-0.7851,-0.7854,-0.7862,-0.7865,-0.7949,-0.7949,-0.7949,-0.7911,0,0,0,0,0,0,-0.7503,-0.7517,-0.7524,-0.7579,-0.7595,-0.7648,-0.7668,-0.7678,-0.7701,-0.7705,-0.7761,-0.7771,-0.7804,-0.7845,-0.7855,-0.786,-0.7868,-0.7949,-0.7949,-0.7949,-0.7912,-0.7909,-0.7907,0,0,0,0,0,-0.7498,-0.7511,-0.7525,-0.7536,-0.7606,-0.7648,-0.7657,-0.7694,-0.7701,-0.771,-0.7745,-0.7769,-0.7852,-0.7848,-0.786,-0.7866,-0.7949,-0.7949,-0.7949,-0.7913,-0.791,-0.7907,0,0,0,0,0,0,-0.7458,-0.7519,-0.7535,-0.7565,-0.7601,-0.7656,-0.7668,-0.769,-0.7725,-0.7727,-0.7773,-0.7786,-0.7818,-0.7846,-0.784,-0.7891,-0.7903,-0.7906,-0.7872,-0.7869,-0.7867,-0.786,-0.7872,0,0,0,0,0,-0.7452,-0.7479,-0.7532,-0.7554,-0.7571,-0.7616,-0.7636,-0.7661,-0.77,-0.7716,-0.7754,-0.7793,-0.7828,-0.785,-0.7886,-0.7916,-0.793,-0.7926,-0.7924,-0.7922,-0.7924,-0.7942,-0.7942,-0.795,-0.795,-0.795,0,0,-0.7442,-0.7478,-0.7493,-0.7547,-0.7577,-0.7606,-0.7629,-0.7658,-0.768,-0.7721,-0.7757,-0.7787,-0.7833,-0.7867,-0.7883,-0.7891,-0.7924,-0.7922,-0.792,-0.7923,-0.7942,-0.7941,-0.7941,-0.795,-0.795,-0.795,0,0,-0.7436,-0.7466,-0.7488,-0.7517,-0.7562,-0.7592,-0.7597,-0.7649,-0.7669,-0.7706,-0.7737,-0.7765,-0.7824,-0.7856,-0.788,-0.7886,-0.7909,-0.7896,-0.7884,-0.7902,-0.7901,-0.7901,-0.7903,-0.7904,-0.7898,-0.7898,-0.7898,0,-0.7418,-0.746,-0.7497,-0.7524,-0.7547,-0.7583,-0.7606,-0.7634,-0.7688,-0.7704,-0.7712,-0.7786,-0.782,-0.7862,-0.7863,-0.7881,-0.7889,-0.789,-0.7898,-0.7898,-0.7898,-0.7901,-0.7902,-0.7896,-0.7896,-0.7896,-0.7896,0,-0.7435,-0.7464,-0.7477,-0.7526,-0.7551,-0.7576,-0.7617,-0.7638,-0.7661,-0.7691,-0.7728,-0.777,-0.7814,-0.7826,-0.7849,-0.7871,-0.7874,-0.7889,-0.7902,-0.7895,-0.7899,-0.79,-0.7893,-0.7894,-0.7894,-0.7895,0,0,-0.7408,-0.7476,-0.748,-0.7503,-0.7555,-0.7579,-0.7606,-0.7647,-0.7664,-0.7701,-0.7725,-0.7774,-0.7788,-0.7815,-0.7843,-0.7858,-0.786,-0.7871,-0.7873,-0.7868,-0.7887,-0.7875,-0.7876,-0.7875,-0.7876,-0.7876,-0.7883,0,-0.7411,-0.7458,-0.7491,-0.7527,-0.7554,-0.7589,-0.7613,-0.7648,-0.7676,-0.7705,-0.7738,-0.7771,-0.7787,-0.7804,-0.782,-0.7856,-0.7864,-0.7856,-0.79,-0.7901,-0.7887,-0.7877,-0.7865,-0.787,-0.7885,-0.7885,-0.7885,0,-0.742,-0.7453,-0.749,-0.7538,-0.7551,-0.7571,-0.7611,-0.7638,-0.7679,-0.7699,-0.7728,-0.7756,-0.7788,-0.7797,-0.7842,-0.7835,-0.7856,-0.7876,-0.7877,-0.7883,-0.7893,-0.7883,-0.7872,-0.7873,-0.7888,-0.7887,-0.7887,0,-0.7396,-0.745,-0.7479,-0.7498,-0.7554,-0.7568,-0.7593,-0.7633,-0.7656,-0.7692,-0.7707,-0.7747,-0.7769,-0.78,-0.7838,-0.7842,-0.7879,-0.7893,-0.7898,-0.7897,-0.7905,-0.7904,-0.7897,-0.7917,-0.7917,-0.7917,-0.7917,0,-0.7395,-0.7417,-0.7469,-0.7487,-0.7512,-0.7551,-0.7576,-0.7604,-0.764,-0.7665,-0.7699,-0.7722,-0.7771,-0.7801,-0.7832,-0.7864,-0.7874,-0.7892,-0.79,-0.7889,-0.7887,-0.7903,-0.7904,-0.7917,-0.7917,-0.7917,-0.7917,0,-0.7373,-0.7409,-0.7443,-0.7493,-0.7506,-0.7523,-0.7567,-0.7587,-0.7616,-0.7648,-0.7658,-0.7705,-0.7742,-0.7783,-0.7835,-0.7855,-0.7886,-0.7897,-0.7871,-0.7876,-0.7879,-0.7878,-0.7882,-0.7885,-0.7903,-0.7903,-0.7903,0,-0.7371,-0.7388,-0.7439,-0.7457,-0.748,-0.7509,-0.7531,-0.757,-0.7593,-0.764,-0.7654,-0.7693,-0.7726,-0.7784,-0.7825,-0.7864,-0.7877,-0.7876,-0.7883,-0.7872,-0.7877,-0.7876,-0.7878,-0.7874,-0.7873,-0.7873,-0.7873,0,-0.7362,-0.7378,-0.7408,-0.7443,-0.7469,-0.7499,-0.7532,-0.7545,-0.7591,-0.7615,-0.7652,-0.7677,-0.7728,-0.7767,-0.7811,-0.7839,-0.7864,-0.787,-0.7873,-0.7862,-0.7846,-0.7855,-0.7865,-0.787,-0.787,-0.787,-0.787,-0.787,-0.735,-0.7366,-0.7404,-0.7436,-0.7464,-0.7493,-0.7513,-0.7545,-0.7575,-0.7618,-0.764,-0.7677,-0.7718,-0.778,-0.7807,-0.7838,-0.7846,-0.7851,-0.7852,-0.7852,-0.7849,-0.7841,-0.7846,-0.7846,-0.7846,-0.7846,-0.7847,0,-0.7343,-0.7368,-0.7397,-0.744,-0.7465,-0.7483,-0.752,-0.7541,-0.7572,-0.7607,-0.7638,-0.7681,-0.7718,-0.7761,-0.7802,-0.7818,-0.783,-0.7828,-0.7827,-0.7833,-0.784,-0.7833,-0.7817,-0.7817,-0.7817,-0.7817,-0.7817,-0.7817,-0.7342,-0.737,-0.7391,-0.7434,-0.7461,-0.7495,-0.7514,-0.7542,-0.757,-0.7615,-0.7645,-0.7672,-0.7711,-0.7754,-0.779,-0.7802,-0.7815,-0.7809,-0.7824,-0.783,-0.7833,-0.7835,-0.7828,-0.7812,-0.7812,-0.7815,-0.7815,-0.7815]},{"header":{"parameterUnit":"m.s-1","parameterCategory":1,"la1":30.2991,"la2":30.254,"lo1":-89.0895,"lo2":-89.0444,"dy":0.0017,"dx":0.0017,"nx":28,"ny":28,"refTime":"2026-01-10T03:00:00:Z","depth":0,"parameterNumber":3,"parameterNumberName":"V-component_of_WINDS"},"data":[0,0,0,0,0,0,0,0,0,0,0,0,0,0,0,0,0,0,0,0,0,0,0,0,0,0,0,0,0,0,0,0,0,0,0,0,0,0,0,0,0,0,0,0,0,0,0,0,0,0,0,0,0,0,0,0,0,0,5.1063,5.1065,0,5.1212,5.1214,5.1216,5.123,5.1228,5.1227,5.1225,5.1375,5.138,5.1385,0,0,0,0,0,0,0,0,0,0,0,0,0,5.0788,5.0793,5.1063,5.1065,5.1067,5.1212,5.1214,5.1216,5.123,5.1228,5.1226,5.1225,5.1373,5.1379,5.1386,0,0,0,0,0,0,0,0,0,0,0,0,0,5.0919,5.0794,5.1063,5.1091,5.1095,5.1212,5.1214,5.1217,5.1231,5.1228,5.1226,5.1224,5.1371,5.1379,5.1387,5.1483,0,0,5.1412,5.1415,0,0,0,0,0,0,0,0,5.0911,5.0929,5.1085,5.109,5.1094,5.12,5.1172,5.1306,5.1231,5.1179,5.1225,5.1223,5.1318,5.1331,5.1364,5.149,5.1497,5.1412,5.1417,5.1421,5.1423,0,0,0,0,0,0,0,5.0902,5.0923,5.1122,5.1088,5.1093,5.1096,5.1112,5.1197,5.126,5.1184,5.1185,5.1203,5.132,5.1356,5.1367,5.1499,5.1412,5.1419,5.1424,5.1427,5.1715,5.1718,0,0,0,0,0,0,5.0888,5.0915,5.1117,5.1126,5.0995,5.1103,5.1121,5.1169,5.1259,5.1271,5.1204,5.1203,5.1343,5.1358,5.1372,5.1495,5.1421,5.1428,5.1433,5.1713,5.1716,5.1719,0,0,0,0,0,0,5.0882,5.0906,5.1111,5.1021,5.1048,5.111,5.1164,5.1173,5.1208,5.1275,5.1286,5.1229,5.1342,5.1361,5.1457,5.15,5.1432,5.1439,5.1709,5.1714,5.1717,5.1737,0,0,0,0,0,0,5.0874,5.0904,5.0942,5.1022,5.1052,5.1194,5.1166,5.1177,5.1223,5.1222,5.1301,5.1312,5.1341,5.1444,5.1465,5.151,5.1446,5.1706,5.1711,5.1716,5.1733,5.1742,5.1749,0,0,0,0,0,5.0865,5.094,5.0944,5.0968,5.1101,5.1196,5.1213,5.1247,5.1226,5.1265,5.1308,5.1309,5.1491,5.1454,5.1477,5.1525,5.1703,5.171,5.1716,5.173,5.174,5.1749,0,0,0,0,0,0,5.0862,5.0951,5.0956,5.106,5.1121,5.1198,5.1248,5.1256,5.1323,5.1319,5.1356,5.1374,5.1469,5.1506,5.1463,5.1625,5.1595,5.1606,5.1598,5.1608,5.1616,5.1606,5.1452,0,0,0,0,0,5.0873,5.0944,5.1018,5.1102,5.1133,5.1185,5.1228,5.1248,5.1312,5.1337,5.1387,5.1448,5.1519,5.1565,5.1634,5.1737,5.1756,5.1782,5.179,5.1796,5.1806,5.1866,5.1879,5.1739,5.1739,5.1739,0,0,5.0898,5.0956,5.0998,5.1103,5.1153,5.1225,5.1207,5.1283,5.1337,5.1348,5.1443,5.1482,5.1552,5.1653,5.17,5.1687,5.1848,5.1804,5.1808,5.1815,5.1874,5.1887,5.1899,5.1744,5.1743,5.1742,0,0,5.0981,5.103,5.1108,5.1158,5.1234,5.1269,5.1287,5.1364,5.1391,5.1487,5.1498,5.1561,5.1682,5.1733,5.1774,5.1877,5.1883,5.1898,5.1941,5.1999,5.201,5.202,5.206,5.2073,5.1907,5.1907,5.1907,0,5.1002,5.1112,5.1146,5.1224,5.1271,5.1286,5.1365,5.1411,5.1505,5.1537,5.1521,5.1675,5.1722,5.1837,5.1863,5.1894,5.1918,5.1891,5.2006,5.2016,5.2026,5.2064,5.2079,5.1909,5.1909,5.1909,5.1909,0,5.1136,5.1212,5.1265,5.1358,5.141,5.1488,5.1534,5.1582,5.1598,5.1634,5.1732,5.1791,5.1873,5.1901,5.1916,5.2018,5.2008,5.1998,5.197,5.2041,5.2077,5.2092,5.1912,5.1911,5.191,5.191,0,0,5.1222,5.1334,5.1353,5.1397,5.1481,5.1541,5.1619,5.1701,5.1743,5.1806,5.1874,5.1977,5.1969,5.2016,5.2037,5.2088,5.2169,5.2072,5.2075,5.2091,5.2289,5.2298,5.2314,5.2172,5.2175,5.2177,5.2284,0,5.1317,5.1459,5.1493,5.1615,5.1687,5.1702,5.177,5.183,5.1865,5.1931,5.1969,5.2043,5.2026,5.2055,5.2106,5.2149,5.221,5.2141,5.2237,5.224,5.2222,5.2333,5.2343,5.2441,5.2298,5.2301,5.2302,0,5.1447,5.1517,5.1646,5.1724,5.1756,5.1817,5.1896,5.1958,5.2026,5.2048,5.2101,5.2117,5.22,5.2165,5.2279,5.2232,5.2272,5.2299,5.2304,5.2317,5.2278,5.2352,5.2473,5.2489,5.2325,5.2323,5.2321,0,5.1501,5.1626,5.1721,5.1757,5.185,5.1893,5.1933,5.1998,5.2046,5.2114,5.2146,5.2221,5.2264,5.2322,5.2358,5.2329,5.2471,5.2438,5.2493,5.2492,5.2525,5.2523,5.2657,5.2545,5.2545,5.2545,5.2544,0,5.1606,5.1685,5.1748,5.1806,5.1896,5.1933,5.2021,5.206,5.2119,5.2185,5.2201,5.2263,5.2305,5.2373,5.2401,5.2493,5.2511,5.2532,5.2539,5.2533,5.2531,5.2562,5.2558,5.2549,5.2548,5.2547,5.2546,0,5.1683,5.1727,5.1832,5.1912,5.1933,5.1996,5.2064,5.2121,5.2157,5.2241,5.2263,5.2319,5.24,5.2441,5.254,5.2559,5.2664,5.2666,5.2643,5.2646,5.27,5.2696,5.2862,5.2887,5.2755,5.2756,5.2757,0,5.1748,5.181,5.1897,5.1944,5.1986,5.206,5.211,5.2148,5.2199,5.2281,5.2329,5.241,5.2479,5.2606,5.2656,5.2732,5.2738,5.2791,5.2749,5.2742,5.2743,5.274,5.2748,5.2799,5.28,5.2801,5.2802,0,5.1861,5.188,5.1952,5.2033,5.2092,5.2157,5.222,5.2257,5.2305,5.2361,5.2445,5.2498,5.2601,5.2683,5.2764,5.2804,5.2812,5.2814,5.2832,5.2828,5.2813,5.2825,5.2666,5.2811,5.281,5.2809,5.2809,5.2809,5.1936,5.1994,5.2065,5.2145,5.2197,5.2256,5.2315,5.2359,5.243,5.2519,5.2536,5.2626,5.2692,5.2802,5.2845,5.2915,5.2904,5.2928,5.2935,5.2941,5.2945,5.2799,5.2929,5.2929,5.2928,5.2928,5.2928,0,5.2053,5.21,5.2173,5.2263,5.2326,5.2328,5.2399,5.2452,5.2531,5.2593,5.266,5.2757,5.2837,5.2892,5.2973,5.3019,5.3025,5.3039,5.3038,5.3048,5.2949,5.2928,5.3033,5.3033,5.3033,5.3033,5.3033,5.3033,5.2121,5.2219,5.2247,5.2371,5.2417,5.2507,5.2547,5.2602,5.2653,5.2761,5.2828,5.2864,5.2924,5.301,5.3083,5.3097,5.3127,5.3142,5.3157,5.3065,5.3054,5.3043,5.3024,5.3148,5.3148,5.325,5.3251,5.3252]}]]